| time (UTC) | temp C | wind direction | speed KPH | gust KPH | rain 1hr cm | rain 24hr cm | rain mn cm | humidity % | barometer mb |
| 20260906224033 | 27 | 305 | 0.0 | 1.6 | 0.00 | 0.00 | 0.00 | 41 | 1019.4 |
| 20260906223028 | 27 | 309 | 1.6 | 3.2 | 0.00 | 0.00 | 0.00 | 39 | 1019.4 |
| 20260906222024 | 27 | 317 | 1.6 | 3.2 | 0.00 | 0.00 | 0.00 | 41 | 1019.2 |
| 20260906221039 | 27 | 331 | 1.6 | 3.2 | 0.00 | 0.00 | 0.00 | 41 | 1019.3 |
| 20260906220034 | 27 | 343 | 0.0 | 1.6 | 0.00 | 0.00 | 0.00 | 42 | 1019.3 |
| 20260906215029 | 28 | 1 | 0.0 | 3.2 | 0.00 | 0.00 | 0.00 | 43 | 1019.4 |
| 20260906214025 | 27 | 331 | 3.2 | 4.8 | 0.00 | 0.00 | 0.00 | 43 | 1019.3 |
| 20260906213020 | 27 | 355 | 0.0 | 1.6 | 0.00 | 0.00 | 0.00 | 45 | 1019.5 |
| 20260906212035 | 27 | 339 | 0.0 | 1.6 | 0.00 | 0.00 | 0.00 | 46 | 1019.6 |
| 20260906211030 | 27 | 352 | 1.6 | 3.2 | 0.00 | 0.00 | 0.00 | 47 | 1019.5 |
| 20260906210025 | 27 | 346 | 3.2 | 6.4 | 0.00 | 0.00 | 0.00 | 48 | 1019.4 |
| 20260906205021 | 28 | 1 | 0.0 | 3.2 | 0.00 | 0.00 | 0.00 | 48 | 1019.4 |
| 20260906204017 | 28 | 337 | 1.6 | 1.6 | 0.00 | 0.00 | 0.00 | 48 | 1019.6 |
| 20260906203033 | 28 | 12 | 0.0 | 1.6 | 0.00 | 0.00 | 0.00 | 49 | 1019.3 |
| 20260906202028 | 28 | 343 | 1.6 | 4.8 | 0.00 | 0.00 | 0.00 | 48 | 1019.4 |
| 20260906201023 | 28 | 3 | 0.0 | 1.6 | 0.00 | 0.00 | 0.00 | 48 | 1019.4 |
| 20260906200038 | 28 | 331 | 1.6 | 3.2 | 0.00 | 0.00 | 0.00 | 48 | 1019.2 |
| 20260906195054 | 28 | 355 | 0.0 | 1.6 | 0.00 | 0.00 | 0.00 | 48 | 1019.2 |
| 20260906194029 | 28 | 0.0 | 0.0 | 0.00 | 0.00 | 0.00 | 48 | 1019.0 | |
| 20260906193024 | 28 | 0.0 | 0.0 | 0.00 | 0.00 | 0.00 | 48 | 1018.9 | |
| 20260906192020 | 28 | 0.0 | 0.0 | 0.00 | 0.00 | 0.00 | 48 | 1018.6 | |
| 20260906191035 | 28 | 54 | 0.0 | 1.6 | 0.00 | 0.00 | 0.00 | 50 | 1018.5 |
| 20260906190031 | 28 | 90 | 1.6 | 4.8 | 0.00 | 0.00 | 0.00 | 49 | 1018.5 |
| 20260906185026 | 29 | 89 | 1.6 | 6.4 | 0.00 | 0.00 | 0.00 | 47 | 1018.4 |
| 20260906184021 | 28 | 68 | 1.6 | 6.4 | 0.00 | 0.00 | 0.00 | 49 | 1018.4 |
| 20260906183057 | 28 | 81 | 0.0 | 1.6 | 0.00 | 0.00 | 0.00 | 48 | 1018.4 |
| 20260906182032 | 29 | 76 | 1.6 | 4.8 | 0.00 | 0.00 | 0.00 | 50 | 1018.2 |
| 20260906181027 | 29 | 82 | 3.2 | 9.7 | 0.00 | 0.00 | 0.00 | 50 | 1018.2 |
| 20260906180023 | 30 | 87 | 3.2 | 9.7 | 0.00 | 0.00 | 0.00 | 48 | 1018.3 |
| 20260906175018 | 30 | 68 | 1.6 | 3.2 | 0.00 | 0.00 | 0.00 | 47 | 1018.4 |
| 20260906174033 | 30 | 86 | 1.6 | 4.8 | 0.00 | 0.00 | 0.00 | 45 | 1018.4 |
| 20260906173029 | 30 | 95 | 3.2 | 6.4 | 0.00 | 0.00 | 0.00 | 44 | 1018.2 |
| 20260906172024 | 31 | 93 | 3.2 | 9.7 | 0.00 | 0.00 | 0.00 | 42 | 1018.2 |
| 20260906171019 | 31 | 122 | 8.0 | 14.5 | 0.00 | 0.00 | 0.00 | 36 | 1018.0 |
| 20260906170035 | 31 | 113 | 11.3 | 17.7 | 0.00 | 0.00 | 0.00 | 36 | 1018.0 |
| 20260906165030 | 31 | 106 | 8.0 | 14.5 | 0.00 | 0.00 | 0.00 | 36 | 1017.7 |
| 20260906164026 | 32 | 114 | 8.0 | 16.1 | 0.00 | 0.00 | 0.00 | 35 | 1017.9 |
| 20260906163021 | 32 | 162 | 6.4 | 16.1 | 0.00 | 0.00 | 0.00 | 32 | 1017.9 |
| 20260906162016 | 32 | 136 | 11.3 | 17.7 | 0.00 | 0.00 | 0.00 | 32 | 1017.9 |
| 20260906161032 | 32 | 145 | 9.7 | 16.1 | 0.00 | 0.00 | 0.00 | 33 | 1017.9 |
| 20260906160027 | 32 | 145 | 12.9 | 20.9 | 0.00 | 0.00 | 0.00 | 34 | 1017.8 |
| 20260906155022 | 33 | 146 | 8.0 | 16.1 | 0.00 | 0.00 | 0.00 | 34 | 1018.0 |
| 20260906154018 | 33 | 160 | 6.4 | 12.9 | 0.00 | 0.00 | 0.00 | 33 | 1018.0 |
| 20260906153033 | 33 | 136 | 12.9 | 24.1 | 0.00 | 0.00 | 0.00 | 33 | 1017.9 |
| 20260906152028 | 33 | 153 | 12.9 | 22.5 | 0.00 | 0.00 | 0.00 | 33 | 1017.8 |
| 20260906151024 | 33 | 166 | 8.0 | 17.7 | 0.00 | 0.00 | 0.00 | 32 | 1017.9 |
| 20260906150019 | 33 | 167 | 6.4 | 16.1 | 0.00 | 0.00 | 0.00 | 32 | 1017.8 |
| 20260906145035 | 33 | 156 | 8.0 | 17.7 | 0.00 | 0.00 | 0.00 | 32 | 1017.8 |
| 20260906144030 | 33 | 171 | 8.0 | 17.7 | 0.00 | 0.00 | 0.00 | 32 | 1017.7 |
| 20260906143025 | 33 | 164 | 9.7 | 20.9 | 0.00 | 0.00 | 0.00 | 32 | 1017.9 |
| 20260906142021 | 33 | 158 | 9.7 | 22.5 | 0.00 | 0.00 | 0.00 | 33 | 1017.9 |
| 20260906141016 | 33 | 182 | 9.7 | 22.5 | 0.00 | 0.00 | 0.00 | 32 | 1018.0 |
| 20260906140031 | 33 | 149 | 12.9 | 20.9 | 0.00 | 0.00 | 0.00 | 33 | 1017.9 |
| 20260906135027 | 34 | 162 | 14.5 | 22.5 | 0.00 | 0.00 | 0.00 | 32 | 1018.1 |
| 20260906134022 | 34 | 118 | 12.9 | 29.0 | 0.00 | 0.00 | 0.00 | 29 | 1017.9 |
| 20260906133017 | 34 | 128 | 14.5 | 22.5 | 0.00 | 0.00 | 0.00 | 28 | 1018.1 |
| 20260906132033 | 33 | 114 | 11.3 | 22.5 | 0.00 | 0.00 | 0.00 | 28 | 1018.3 |
| 20260906131029 | 33 | 159 | 8.0 | 16.1 | 0.00 | 0.00 | 0.00 | 30 | 1018.3 |
| 20260906130024 | 33 | 122 | 11.3 | 16.1 | 0.00 | 0.00 | 0.00 | 33 | 1018.3 |
| 20260906125019 | 33 | 97 | 8.0 | 14.5 | 0.00 | 0.00 | 0.00 | 30 | 1018.4 |
| 20260906124034 | 34 | 91 | 6.4 | 14.5 | 0.00 | 0.00 | 0.00 | 30 | 1018.5 |
| 20260906123030 | 34 | 92 | 4.8 | 20.9 | 0.00 | 0.00 | 0.00 | 27 | 1018.5 |
| 20260906122025 | 34 | 115 | 9.7 | 16.1 | 0.00 | 0.00 | 0.00 | 27 | 1018.6 |
| 20260906121021 | 35 | 95 | 4.8 | 14.5 | 0.00 | 0.00 | 0.00 | 28 | 1018.7 |
| 20260906120016 | 35 | 121 | 8.0 | 17.7 | 0.00 | 0.00 | 0.00 | 29 | 1018.6 |
| 20260906115032 | 35 | 141 | 6.4 | 12.9 | 0.00 | 0.00 | 0.00 | 27 | 1018.7 |
| 20260906114028 | 35 | 113 | 8.0 | 17.7 | 0.00 | 0.00 | 0.00 | 24 | 1018.7 |
| 20260906113023 | 35 | 129 | 4.8 | 9.7 | 0.00 | 0.00 | 0.00 | 23 | 1018.8 |
| 20260906112019 | 36 | 127 | 3.2 | 12.9 | 0.00 | 0.00 | 0.00 | 25 | 1018.8 |
| 20260906111054 | 35 | 107 | 3.2 | 11.3 | 0.00 | 0.00 | 0.00 | 25 | 1019.0 |
| 20260906110030 | 35 | 175 | 3.2 | 6.4 | 0.00 | 0.00 | 0.00 | 25 | 1019.1 |
| 20260906105045 | 35 | 117 | 1.6 | 6.4 | 0.00 | 0.00 | 0.00 | 25 | 1019.3 |
| 20260906104021 | 35 | 135 | 1.6 | 4.8 | 0.00 | 0.00 | 0.00 | 25 | 1019.4 |
| 20260906103036 | 34 | 104 | 1.6 | 4.8 | 0.00 | 0.00 | 0.00 | 27 | 1019.5 |
| 20260906102051 | 33 | 135 | 1.6 | 4.8 | 0.00 | 0.00 | 0.00 | 27 | 1019.5 |
| 20260906101026 | 33 | 61 | 0.0 | 3.2 | 0.00 | 0.00 | 0.00 | 29 | 1019.6 |
| 20260906100021 | 33 | 113 | 3.2 | 6.4 | 0.00 | 0.00 | 0.00 | 28 | 1019.6 |
| 20260906095057 | 33 | 140 | 0.0 | 3.2 | 0.00 | 0.00 | 0.00 | 28 | 1019.6 |
| 20260906094032 | 33 | 150 | 1.6 | 3.2 | 0.00 | 0.00 | 0.00 | 28 | 1019.8 |
| 20260906093027 | 33 | 133 | 0.0 | 3.2 | 0.00 | 0.00 | 0.00 | 28 | 1019.6 |
| 20260906092023 | 33 | 105 | 0.0 | 3.2 | 0.00 | 0.00 | 0.00 | 28 | 1019.7 |
| 20260906091018 | 31 | 39 | 0.0 | 1.6 | 0.00 | 0.00 | 0.00 | 30 | 1019.7 |
| 20260906090034 | 30 | 0.0 | 0.0 | 0.00 | 0.00 | 0.00 | 31 | 1019.7 | |
| 20260906085030 | 30 | 301 | 1.6 | 4.8 | 0.00 | 0.00 | 0.00 | 32 | 1019.6 |
| 20260906084025 | 29 | 347 | 1.6 | 3.2 | 0.00 | 0.00 | 0.00 | 33 | 1019.7 |
| 20260906083020 | 29 | 339 | 1.6 | 3.2 | 0.00 | 0.00 | 0.00 | 33 | 1019.6 |
| 20260906082015 | 29 | 300 | 1.6 | 6.4 | 0.00 | 0.00 | 0.00 | 33 | 1019.5 |
| 20260906081030 | 29 | 303 | 1.6 | 4.8 | 0.00 | 0.00 | 0.00 | 33 | 1019.4 |
| 20260906080026 | 28 | 281 | 3.2 | 4.8 | 0.00 | 0.00 | 0.00 | 33 | 1019.4 |
| 20260906075041 | 28 | 287 | 1.6 | 4.8 | 0.00 | 0.00 | 0.00 | 35 | 1019.3 |
| 20260906074036 | 27 | 347 | 1.6 | 4.8 | 0.00 | 0.00 | 0.00 | 37 | 1019.1 |
| 20260906073032 | 27 | 322 | 3.2 | 6.4 | 0.00 | 0.00 | 0.00 | 38 | 1019.2 |
| 20260906072027 | 26 | 8 | 0.0 | 3.2 | 0.00 | 0.00 | 0.00 | 40 | 1019.2 |
| 20260906071022 | 26 | 326 | 0.0 | 3.2 | 0.00 | 0.00 | 0.00 | 42 | 1019.2 |
| 20260906070018 | 26 | 334 | 0.0 | 1.6 | 0.00 | 0.00 | 0.00 | 43 | 1019.2 |
| 20260906065033 | 25 | 5 | 0.0 | 1.6 | 0.00 | 0.00 | 0.00 | 45 | 1019.2 |
| 20260906064049 | 24 | 302 | 1.6 | 6.4 | 0.00 | 0.00 | 0.00 | 47 | 1019.1 |
| 20260906063024 | 24 | 317 | 1.6 | 4.8 | 0.00 | 0.00 | 0.00 | 48 | 1019.1 |
| 20260906062019 | 23 | 331 | 0.0 | 3.2 | 0.00 | 0.00 | 0.00 | 48 | 1019.1 |
| 20260906061114 | 23 | 291 | 3.2 | 11.3 | 0.00 | 0.00 | 0.00 | 48 | 1019.0 |
| 20260906060030 | 23 | 290 | 3.2 | 9.7 | 0.00 | 0.00 | 0.00 | 48 | 1018.9 |
| 20260906055026 | 23 | 270 | 0.0 | 1.6 | 0.00 | 0.00 | 0.00 | 47 | 1018.8 |
| 20260906054041 | 23 | 306 | 1.6 | 4.8 | 0.00 | 0.00 | 0.00 | 47 | 1018.7 |
| 20260906053016 | 23 | 330 | 0.0 | 1.6 | 0.00 | 0.00 | 0.00 | 46 | 1018.6 |
| 20260906052032 | 23 | 330 | 0.0 | 3.2 | 0.00 | 0.00 | 0.00 | 45 | 1018.5 |
| 20260906051027 | 23 | 0.0 | 0.0 | 0.00 | 0.00 | 0.00 | 48 | 1018.4 | |
| 20260906050023 | 23 | 0.0 | 0.0 | 0.00 | 0.00 | 0.00 | 48 | 1018.4 | |
| 20260906045018 | 24 | 331 | 1.6 | 4.8 | 0.00 | 0.00 | 0.00 | 48 | 1018.3 |
| 20260906044033 | 24 | 313 | 3.2 | 9.7 | 0.00 | 0.00 | 0.00 | 47 | 1018.5 |
| 20260906043028 | 25 | 310 | 3.2 | 11.3 | 0.00 | 0.00 | 0.00 | 47 | 1018.5 |
| 20260906042024 | 24 | 311 | 6.4 | 14.5 | 0.00 | 0.00 | 0.00 | 50 | 1018.6 |
| 20260906041019 | 23 | 304 | 4.8 | 9.7 | 0.00 | 0.00 | 0.00 | 54 | 1018.7 |
| 20260906040055 | 23 | 289 | 1.6 | 4.8 | 0.00 | 0.00 | 0.00 | 53 | 1018.6 |
| 20260906035031 | 23 | 283 | 1.6 | 4.8 | 0.00 | 0.00 | 0.00 | 55 | 1018.5 |
| 20260906034026 | 23 | 0.0 | 0.0 | 0.00 | 0.00 | 0.00 | 58 | 1018.7 | |
| 20260906033022 | 23 | 0.0 | 0.0 | 0.00 | 0.00 | 0.00 | 56 | 1018.6 | |
| 20260906032017 | 24 | 332 | 0.0 | 1.6 | 0.00 | 0.00 | 0.00 | 55 | 1018.6 |
| 20260906031032 | 24 | 314 | 1.6 | 6.4 | 0.00 | 0.00 | 0.00 | 54 | 1018.7 |
| 20260906030028 | 24 | 296 | 1.6 | 6.4 | 0.00 | 0.00 | 0.00 | 54 | 1018.8 |
| 20260906025043 | 24 | 316 | 0.0 | 3.2 | 0.00 | 0.00 | 0.00 | 55 | 1018.7 |
| 20260906024019 | 24 | 300 | 1.6 | 3.2 | 0.00 | 0.00 | 0.00 | 54 | 1018.6 |
| 20260906023034 | 24 | 311 | 0.0 | 1.6 | 0.00 | 0.00 | 0.00 | 54 | 1018.7 |
| 20260906022029 | 24 | 316 | 1.6 | 1.6 | 0.00 | 0.00 | 0.00 | 54 | 1018.8 |
| 20260906021025 | 24 | 293 | 1.6 | 3.2 | 0.00 | 0.00 | 0.00 | 56 | 1018.8 |
| 20260906020020 | 24 | 0.0 | 0.0 | 0.00 | 0.00 | 0.00 | 59 | 1019.0 | |
| 20260906015036 | 24 | 0.0 | 0.0 | 0.00 | 0.00 | 0.00 | 61 | 1019.0 | |
| 20260906014031 | 25 | 0.0 | 0.0 | 0.00 | 0.00 | 0.00 | 62 | 1019.1 | |
| 20260906013027 | 24 | 0.0 | 0.0 | 0.00 | 0.00 | 0.00 | 62 | 1019.2 | |
| 20260906012042 | 25 | 0.0 | 0.0 | 0.00 | 0.00 | 0.00 | 62 | 1019.3 | |
| 20260906011018 | 25 | 0.0 | 0.0 | 0.00 | 0.00 | 0.00 | 62 | 1019.3 | |
| 20260906010033 | 25 | 0.0 | 0.0 | 0.00 | 0.00 | 0.00 | 62 | 1019.3 | |
| 20260906005028 | 25 | 279 | 1.6 | 4.8 | 0.00 | 0.00 | 0.00 | 62 | 1019.4 |
| 20260906004023 | 25 | 282 | 1.6 | 6.4 | 0.00 | 0.00 | 0.00 | 63 | 1019.2 |
| 20260906003019 | 25 | 0.0 | 0.0 | 0.00 | 0.00 | 0.00 | 68 | 1019.3 | |
| 20260906002034 | 25 | 0.0 | 0.0 | 0.00 | 0.00 | 0.00 | 67 | 1019.3 | |
| 20260906001029 | 25 | 0.0 | 0.0 | 0.00 | 0.00 | 0.00 | 65 | 1019.3 | |
| 20260906000024 | 25 | 354 | 1.6 | 1.6 | 0.00 | 0.00 | 0.00 | 63 | 1019.3 |
| 20260905235019 | 25 | 357 | 0.0 | 1.6 | 0.00 | 0.00 | 0.00 | 63 | 1019.3 |
| 20260905234035 | 26 | 334 | 0.0 | 1.6 | 0.00 | 0.00 | 0.00 | 64 | 1019.4 |
| 20260905233030 | 26 | 308 | 0.0 | 3.2 | 0.00 | 0.00 | 0.00 | 62 | 1019.6 |
| 20260905232025 | 26 | 321 | 0.0 | 1.6 | 0.00 | 0.00 | 0.00 | 63 | 1019.5 |
| 20260905231020 | 26 | 300 | 0.0 | 1.6 | 0.00 | 0.00 | 0.00 | 62 | 1019.6 |
| 20260905230015 | 26 | 339 | 0.0 | 1.6 | 0.00 | 0.00 | 0.00 | 64 | 1019.6 |
| 20260905225031 | 26 | 212 | 0.0 | 1.6 | 0.00 | 0.00 | 0.00 | 65 | 1019.6 |